Lapse_Rate
1.6 2.0 2.4 2.2 1.3 1.7 1.2 0.4 0.3 0.2 0.4 0.5 0.3 -0.8 -1.1 -0.6 -0.5 -0.6 -0.7 -0.8 -0.8 -1.2 -1.8 -2.2 -2.1 -2.6 -2.8 -2.9 -2.4 -2.7 -0.5 -0.0
0.8 0.6 0.5 0.8 1.5 2.3 1.6 0.6 0.1 0.4 0.6 0.3 -0.1 -1.0 -1.1 -1.4 -0.7 -0.1 -0.2 -0.7 -0.9 -1.3 -1.8 -2.1 -2.3 -2.1 -2.4 -2.5 -2.1 -1.1 -0.9 -0.1
1.5 0.5 0.2 0.5 1.2 2.3 1.7 1.4 0.1 1.0 1.1 1.0 -0.4 0.5 -0.3 -1.0 -1.4 -0.3 -0.2 -0.6 -0.8 -1.3 -1.9 -2.7 -3.0 -2.8 -2.3 -2.0 -2.2 -3.2 -2.4 -1.6
0.4 0.7 0.1 0.9 1.8 1.7 1.6 1.7 1.3 1.6 1.6 -0.1 0.1 -0.2 -0.5 -0.8 -1.2 -1.0 -0.1 -0.1 -0.6 -1.3 -1.6 -2.0 -2.4 -2.4 -2.3 -2.5 -2.3 -1.3 -2.5 -2.6
1.1 0.6 0.4 0.9 1.4 1.2 1.8 2.0 2.0 2.0 1.2 1.2 0.8 1.1 0.3 0.5 0.4 -0.8 -1.5 -0.7 -1.0 -1.4 -1.5 -2.2 -2.4 -2.8 -2.9 -2.7 -2.6 -2.2 -1.7 -1.8
-0.7 0.4 0.2 1.3 2.4 1.2 2.0 2.2 2.5 1.8 1.9 1.6 1.2 1.1 -0.2 -1.1 -0.5 -2.0 -2.6 -2.4 -1.7 -2.1 -2.4 -3.0 -3.3 -3.4 -3.5 -3.3 -3.3 -3.0 -2.6 -2.0
-0.6 1.6 1.8 1.9 1.1 1.5 1.8 2.6 2.6 1.8 1.7 1.6 1.7 0.5 -0.5 -0.5 -0.6 -1.1 -2.2 -3.3 -3.4 -3.0 -2.8 -3.1 -3.0 -3.2 -3.4 -3.8 -4.0 -3.4 -3.1 -2.7
-0.5 0.9 2.7 2.6 2.0 2.2 3.2 3.7 2.7 2.7 2.5 2.1 1.4 1.1 0.6 0.1 -1.2 -1.4 -2.8 -3.6 -3.7 -3.6 -3.4 -3.6 -3.6 -3.3 -3.1 -3.1 -3.3 -3.2 -3.1 -3.0
1.3 2.1 1.7 1.3 3.0 4.2 4.1 3.5 2.3 2.0 2.3 2.3 2.2 1.5 1.3 0.3 -0.6 -1.5 -2.8 -3.2 -3.3 -3.6 -3.4 -3.1 -3.0 -2.8 -2.8 -2.8 -2.9 -3.0 -3.3 -3.3
2.1 2.7 3.3 3.9 5.1 5.0 3.5 3.0 2.8 3.1 2.4 1.5 1.9 1.5 0.9 0.4 -0.6 -2.3 -2.6 -2.8 -2.3 -3.3 -3.0 -3.2 -2.7 -2.5 -2.5 -2.6 -2.8 -3.2 -2.9 -2.7
3.5 3.2 3.6 5.0 5.3 4.5 3.2 3.1 3.1 2.3 2.6 2.4 1.7 1.0 0.6 -0.2 -0.6 -1.6 -2.2 -2.3 -2.4 -2.9 -3.1 -2.7 -2.3 -2.4 -2.4 -2.9 -3.2 -3.2 -2.5 -2.7
6.1 5.3 5.0 5.7 4.3 2.8 1.9 2.0 1.4 1.6 2.0 1.7 1.2 0.8 0.0 -0.2 -0.5 -1.2 -1.6 -2.0 -2.2 -2.2 -2.2 -2.4 -1.8 -2.3 -2.6 -2.9 -2.8 -2.4 -2.1 -2.1
3.1 5.7 6.0 4.7 4.3 3.8 2.6 2.8 1.8 -0.6 0.6 1.8 0.8 -0.8 -0.6 0.1 -0.4 -1.2 -1.6 -1.3 -1.9 -1.6 -1.7 -1.9 -1.7 -1.9 -2.3 -1.9 -1.6 -2.0 -1.6 -1.8
3.5 4.5 5.0 4.9 5.0 2.7 2.7 2.5 2.5 1.5 0.7 -0.6 -0.9 -0.9 -1.0 -1.1 -1.0 -1.2 -1.2 -1.5 -1.6 -1.2 -1.3 -1.4 -1.5 -1.9 -2.5 -2.6 -1.4 -1.7 -2.7 -3.8
3.9 4.5 4.3 4.0 4.0 4.3 3.9 2.6 2.3 1.5 0.4 -0.1 -1.1 -1.1 -1.0 -1.2 -1.4 -1.2 -1.1 -1.2 -1.3 -2.5 -2.9 -2.4 -2.1 -2.1 -2.2 -2.4 -2.7 -4.2 -5.1 -6.4
4.8 4.4 4.2 4.8 4.3 6.3 5.8 3.3 1.9 1.5 0.9 0.5 -0.1 -0.6 -0.8 -1.1 -0.6 -0.3 -0.3 0.3 -0.9 -2.8 -3.0 -2.3 -2.4 -1.5 -1.0 -1.9 -1.9 -4.0 -4.4 -4.9
5.4 5.3 4.8 4.3 4.7 4.9 4.8 3.9 3.0 2.8 2.4 0.4 -0.3 -0.4 -0.3 -0.1 0.2 0.2 0.0 -1.0 -1.0 -0.7 -0.7 -0.7 -1.2 0.5 0.4 0.1 -0.8 -1.6 -0.9 -1.2
4.8 5.4 5.8 4.8 3.8 4.1 2.8 2.1 2.0 2.8 2.1 0.5 -0.3 -0.4 0.2 0.2 0.3 -0.3 -0.2 0.1 0.8 0.5 0.0 0.1 0.6 1.3 1.7 1.6 1.5 0.1 0.1 -0.0
5.6 4.4 3.7 3.3 4.8 3.5 3.0 1.9 1.1 1.3 1.1 0.7 -0.1 0.3 0.0 0.5 0.6 0.6 0.8 0.3 -0.3 -0.5 0.9 2.0 1.8 2.9 2.9 3.0 2.3 1.0 0.9 0.4
Wind_Speed
14 10 10 11 11 13 12 10 11 11 9 8 5 5 3 8 7 9 14 13 14 12 9 9 10 5 4 4 8 5 8 9
14 14 16 14 12 14 15 14 13 12 8 7 5 4 4 3 5 9 12 13 14 11 7 7 8 5 5 6 7 11 7 7
11 15 17 18 18 15 15 16 16 12 10 4 4 5 2 3 5 7 11 12 13 11 7 5 5 5 6 5 4 3 3 1
12 14 17 15 17 17 17 17 17 13 11 9 6 6 4 3 4 5 3 9 11 11 10 7 5 4 5 4 5 6 4 2
12 15 14 17 17 16 16 17 16 12 13 9 16 9 8 3 4 4 5 12 11 14 12 10 7 5 5 4 4 3 4 4
14 17 18 13 11 13 14 16 15 13 12 11 9 9 4 5 5 8 6 5 10 12 12 11 6 5 4 5 5 5 3 3
8 9 10 12 11 13 14 16 14 13 12 10 10 12 10 9 7 7 6 4 4 8 11 11 10 7 5 5 5 5 4 4
8 13 13 13 16 17 15 15 12 12 12 11 10 11 11 13 12 8 9 5 3 5 5 6 4 9 10 9 6 6 4 4
7 10 13 15 16 16 16 16 14 13 14 12 10 11 6 6 8 7 5 4 6 6 6 8 9 12 11 11 4 5 5 6
4 4 4 8 12 13 15 16 13 14 14 12 11 11 10 8 7 5 4 6 5 5 8 6 8 10 10 9 5 6 7 6
4 5 6 7 9 8 9 8 11 14 13 10 10 13 12 11 9 8 8 6 6 7 7 8 7 8 9 7 6 5 8 4
2 3 7 8 7 10 10 11 9 8 8 9 11 10 11 11 10 9 9 7 8 8 8 9 7 8 7 8 7 7 7 7
7 6 6 8 11 10 11 12 15 14 13 12 11 10 11 11 10 11 10 9 7 8 8 9 8 7 6 8 7 6 7 7
4 5 7 7 7 7 10 11 9 12 12 12 11 11 10 10 11 11 10 10 9 7 8 8 8 7 7 6 7 7 6 5
8 6 8 12 10 7 9 9 9 10 11 12 13 12 12 11 11 12 11 10 10 8 7 7 7 7 8 8 7 7 7 6
10 10 8 10 12 13 11 8 11 12 12 12 11 12 11 12 12 12 11 10 8 9 9 7 8 7 7 9 10 9 9 8
8 10 8 11 11 12 11 10 12 12 14 13 12 13 12 12 12 12 11 9 8 10 10 9 9 6 17 19 14 10 9 10
10 6 5 10 14 15 16 15 14 14 13 13 14 14 14 12 13 12 11 10 9 7 8 9 7 8 20 20 19 8 8 7
2 3 4 9 13 14 12 16 16 15 14 14 14 15 14 13 14 14 13 11 11 10 8 8 7 8 20 20 16 8 7 6
Wind_Direction
208 192 181 183 180 174 159 153 152 148 145 135 123 117 108 130 136 135 133 132 131 126 121 122 121 109 108 102 108 72 103 107
190 181 177 177 177 174 168 151 157 151 150 143 136 144 134 113 110 127 127 132 135 131 127 124 121 116 114 111 109 113 103 112
189 184 185 183 179 177 167 163 161 162 160 167 124 139 111 115 116 126 137 135 139 132 128 117 118 118 114 118 119 115 91 49
194 190 195 185 183 179 173 165 162 164 155 122 111 101 94 119 138 127 113 120 122 119 120 118 110 115 128 132 133 130 142 61
199 200 192 189 189 179 173 164 168 165 159 153 161 168 158 141 151 134 131 132 129 129 126 119 116 113 109 121 142 144 128 138
205 201 200 192 172 170 168 166 166 160 164 164 159 149 124 129 133 129 121 117 126 126 128 118 106 102 106 117 118 127 103 127
210 193 173 173 158 165 166 169 164 162 158 158 161 147 143 142 147 143 136 118 118 121 121 120 123 116 110 95 84 92 112 113
186 179 179 171 171 168 165 169 165 167 158 152 149 149 156 159 156 157 145 138 128 133 124 125 121 113 107 104 95 92 97 107
207 200 181 172 172 170 163 164 157 158 156 156 151 145 157 161 159 154 141 140 141 140 130 122 121 118 112 105 99 104 98 91
128 132 159 168 171 171 168 163 165 168 167 153 153 150 150 160 148 129 131 122 129 124 126 118 122 115 121 121 114 101 93 87
123 134 150 171 176 170 146 150 182 169 162 164 162 161 154 148 150 143 130 128 117 128 121 120 121 119 122 115 106 101 103 92
303 185 176 166 160 150 139 145 152 168 168 160 161 158 151 146 150 137 134 130 136 131 132 125 133 127 119 109 106 112 109 109
148 164 169 169 180 177 172 193 186 178 168 166 161 140 141 150 141 136 134 141 123 132 130 125 130 125 120 121 119 120 125 122
179 152 157 183 219 195 184 181 178 162 150 142 139 148 146 138 138 133 131 130 125 129 124 127 128 124 118 102 118 120 111 109
216 196 182 163 179 210 218 173 156 155 146 152 150 150 150 145 141 136 139 139 140 134 124 130 128 125 124 120 114 108 107 105
219 221 199 176 175 202 207 184 161 157 153 152 157 144 141 136 139 139 136 146 144 131 123 134 116 131 138 128 132 126 125 116
226 222 197 178 177 181 174 170 170 165 165 153 148 137 138 140 142 138 133 126 135 141 140 136 132 146 149 147 141 138 135 133
229 203 232 196 185 194 192 181 166 164 155 153 150 143 142 147 136 131 126 136 136 124 122 126 132 139 149 146 145 132 133 131
190 282 304 284 192 184 181 165 169 161 153 155 151 147 143 146 143 144 150 146 137 130 132 130 149 160 155 152 144 126 123 116